Missoula, MT

4:39 PM MST on December 18, 2017 (GMT -0700)
Missoula International

Weather History for KMSO - May, 2012

Change the Weather History Date:

Saturday, May 26, 2012

  Actual Average Record
Temperature  
Mean Temperature 47 °F 56 °F  
Max Temperature 52 °F 70 °F 93 °F (1986)
Min Temperature 42 °F 43 °F 26 °F (1893)
Degree Days  
Heating Degree Days 18 9  
Month to date heating degree days 352 317  
Since 1 July heating degree days 6768 7080  
Cooling Degree Days 0 0  
Month to date cooling degree days 0 0  
Year to date cooling degree days 0 0  
Moisture  
Dew Point 33 °F    
Average Humidity 63    
Maximum Humidity 83    
Minimum Humidity 42    
Precipitation  
Precipitation 0.07 in 0.08 in 0.99 in (1998)
Month to date precipitation 0.74 1.58  
Year to date precipitation 5.54 5.35  
Snow  
Snow 0.00 in - - ()
Month to date snowfall 0.3  
Year to date snowfall 29.2  
Since 1 July snowfall 40.1  
Snow Depth 0.00 in    
Sea Level Pressure  
Sea Level Pressure 29.89 in    
Wind  
Wind Speed 6 mph (SSW)    
Max Wind Speed 20 mph    
Max Gust Speed 29 mph    
Visibility 10 miles    
Events Rain    
T = Trace of Precipitation, MM = Missing Value Source: NWS Daily Summary

Daily Weather History Graph

Daily Weather History Graph

Search for Another Location

Airport or City:

Trip Planner

Search our weather history database for the weather conditions in past years. The results will help you decide how hot, cold, wet, or windy it might be!

Date:

Astronomy

May. 26, 2012 Rise Set
Actual Time 5:49 AM MDT 9:18 PM MDT
Civil Twilight 5:11 AM MDT 9:56 PM MDT
Nautical Twilight 4:21 AM MDT 10:46 PM MDT
Astronomical Twilight 3:16 AM MDT 11:52 PM MDT
Moon 11:04 AM MDT (5/26) 12:46 AM MDT (5/26)
Length of Visible Light 16h 44m
Length of Day
15h 28m
Waxing Crescent, 29% of the Moon is Illuminated
May 26
Waxing Crescent
May 28
First Quarter
Jun 4
Full
Jun 11
Last Quarter
Jun 19
New

Hourly Weather History & Observations

Time (MDT) Temp. Windchill Dew Point Humidity Pressure Visibility Wind Dir Wind Speed Gust Speed Precip Events Conditions
12:53 AM 44.1 °F 41.5 °F 37.0 °F 76% 29.93 in 10.0 mi WNW 4.6 mph - N/A   Overcast
1:53 AM 44.1 °F 40.8 °F 37.0 °F 76% 29.92 in 10.0 mi WSW 5.8 mph - N/A   Overcast
2:53 AM 44.1 °F - 37.0 °F 76% 29.92 in 10.0 mi Calm Calm - N/A   Overcast
3:53 AM 48.0 °F - 27.0 °F 44% 29.90 in 10.0 mi East 13.8 mph - N/A   Overcast
4:53 AM 46.9 °F - 26.1 °F 44% 29.90 in 10.0 mi East 8.1 mph - N/A   Overcast
5:53 AM 46.9 °F - 26.1 °F 44% 29.89 in 10.0 mi ESE 9.2 mph 21.9 mph N/A   Overcast
6:53 AM 46.0 °F 41.0 °F 27.0 °F 47% 29.90 in 10.0 mi SE 10.4 mph - N/A   Overcast
7:53 AM 46.0 °F 41.9 °F 28.0 °F 50% 29.91 in 10.0 mi SE 8.1 mph - N/A   Overcast
8:53 AM 46.9 °F - 27.0 °F 46% 29.90 in 10.0 mi East 11.5 mph - N/A   Overcast
9:53 AM 48.0 °F - 28.9 °F 48% 29.90 in 10.0 mi SE 10.4 mph 17.3 mph N/A   Overcast
10:53 AM 46.0 °F 43.1 °F 32.0 °F 58% 29.91 in 10.0 mi SSE 5.8 mph - 0.00 in Rain Light Rain
11:53 AM 46.9 °F - 30.0 °F 52% 29.90 in 10.0 mi ESE 16.1 mph 19.6 mph 0.00 in   Overcast
12:42 PM 46.4 °F 44.3 °F 30.2 °F 53% 29.87 in 10.0 mi WSW 4.6 mph - N/A   Overcast
12:53 PM 46.9 °F - 30.9 °F 54% 29.89 in 10.0 mi WNW 3.5 mph - N/A   Overcast
1:00 PM 48.2 °F - 32.0 °F 54% 29.87 in 10.0 mi SW 3.5 mph - N/A   Overcast
1:53 PM 48.9 °F - 33.1 °F 54% 29.88 in 10.0 mi WSW 6.9 mph - N/A   Overcast
2:53 PM 48.9 °F - 34.0 °F 56% 29.88 in 10.0 mi Calm Calm - 0.01 in   Overcast
3:53 PM 51.1 °F - 34.0 °F 52% 29.86 in 10.0 mi North 3.5 mph - N/A   Overcast
4:53 PM 50.0 °F - 34.0 °F 54% 29.86 in 10.0 mi SSW 5.8 mph - N/A   Overcast
5:53 PM 50.0 °F - 35.1 °F 57% 29.84 in 10.0 mi WSW 5.8 mph - N/A   Overcast
6:53 PM 52.0 °F - 32.0 °F 47% 29.84 in 10.0 mi North 4.6 mph - N/A   Overcast
7:53 PM 50.0 °F - 33.1 °F 52% 29.86 in 10.0 mi North 10.4 mph - N/A   Overcast
8:53 PM 48.9 °F - 33.1 °F 54% 29.88 in 10.0 mi Variable 4.6 mph - N/A   Overcast
9:24 PM 46.4 °F 45.2 °F 37.4 °F 71% 29.87 in 10.0 mi NNW 3.5 mph - 0.00 in Rain Light Rain
9:53 PM 45.0 °F - 37.0 °F 74% 29.90 in 9.0 mi Calm Calm - 0.00 in Rain Light Rain
10:53 PM 44.1 °F - 39.0 °F 82% 29.89 in 10.0 mi Calm Calm - 0.02 in Rain Light Rain
11:42 PM 42.8 °F 40.1 °F 37.4 °F 81% 29.86 in 10.0 mi WNW 4.6 mph - 0.00 in   Overcast
11:53 PM 43.0 °F - 37.0 °F 80% 29.90 in 10.0 mi Calm Calm - 0.00 in   Overcast